Location: Newark
(49.8969°N, 3.3422°E)
Time: 01:55:49
(UTC+00:00)

Explorer 7 - Pass Details

Date: 25 January 2020
Orbit: 485 x 679 km, 50.3° (Epoch: 21 February)

Event Time Altitude Azimuth Distance (km) Brightness Sun altitude
Rises 01:50:57 0° 275° (W) 2,550 - -52.0°
Reaches altitude 10° 01:53:06 10° 276° (W) 1,675 - -51.7°
Maximum altitude 01:56:53 85° 4° (N) 503 - -51.3°
Drops below altitude 10° 02:00:47 10° 95° (E) 1,728 - -50.8°
Sets 02:03:02 0° 96° (E) 2,640 - -50.5°
